Time,TemperatureF,DewpointF,PressureIn,WindDirection,WindDirectionDegrees,WindSpeedMPH,WindSpeedGustMPH,Humidity,HourlyPrecipIn,Conditions,Clouds,dailyrainin,SoftwareType,DateUTC
2013-05-25 00:01:00,36.9,32.8,30.36,NNE,33,0.0,0.0,85,0.00,,,0.02,WUHU216DAVISVP2,2013-05-25 04:01:00,
2013-05-25 00:02:00,36.8,32.7,30.36,NNE,33,0.0,0.0,85,0.00,,,0.00,WUHU216DAVISVP2,2013-05-25 04:02:00,
2013-05-25 00:07:00,36.6,32.8,30.36,NNE,33,0.0,0.0,86,0.00,,,0.00,WUHU216DAVISVP2,2013-05-25 04:07:00,
2013-05-25 00:12:00,36.3,32.8,30.37,NNE,33,0.0,0.0,87,0.00,,,0.00,WUHU216DAVISVP2,2013-05-25 04:12:00,
2013-05-25 00:17:00,36.2,32.7,30.37,NNE,33,0.0,0.0,87,0.00,,,0.00,WUHU216DAVISVP2,2013-05-25 04:17:00,
2013-05-25 00:22:00,36.1,32.9,30.37,ENE,62,0.0,2.0,88,0.00,,,0.00,WUHU216DAVISVP2,2013-05-25 04:22:00,
2013-05-25 00:27:00,36.1,33.1,30.37,ENE,62,0.0,2.0,89,0.00,,,0.00,WUHU216DAVISVP2,2013-05-25 04:27:00,
2013-05-25 00:32:00,36.0,33.0,30.37,ENE,62,0.0,0.0,89,0.00,,,0.00,WUHU216DAVISVP2,2013-05-25 04:32:00,
2013-05-25 00:37:00,35.9,32.9,30.38,ENE,62,0.0,0.0,89,0.00,,,0.00,WUHU216DAVISVP2,2013-05-25 04:37:00,
2013-05-25 00:42:00,35.9,32.9,30.38,ENE,62,0.0,2.0,89,0.00,,,0.00,WUHU216DAVISVP2,2013-05-25 04:42:00,
2013-05-25 00:47:00,35.8,32.8,30.38,ENE,62,0.0,2.0,89,0.00,,,0.00,WUHU216DAVISVP2,2013-05-25 04:47:00,
2013-05-25 00:52:00,35.7,32.7,30.38,ENE,62,0.0,0.0,89,0.00,,,0.00,WUHU216DAVISVP2,2013-05-25 04:52:00,
2013-05-25 00:57:00,35.6,32.6,30.37,ENE,62,0.0,0.0,89,0.00,,,0.00,WUHU216DAVISVP2,2013-05-25 04:57:00,
2013-05-25 01:04:00,35.5,32.6,30.37,North,0,0.0,0.0,89,0.00,,,0.00,WUHU216DAVISVP2,2013-05-25 05:04:00,
2013-05-25 01:09:00,35.3,32.6,30.37,ENE,62,0.0,0.0,90,0.00,,,0.00,WUHU216DAVISVP2,2013-05-25 05:09:00,
2013-05-25 01:14:00,35.2,32.5,30.37,ENE,62,0.0,0.0,90,0.00,,,0.00,WUHU216DAVISVP2,2013-05-25 05:14:00,
2013-05-25 01:19:00,35.1,32.7,30.37,ENE,62,0.0,0.0,91,0.00,,,0.00,WUHU216DAVISVP2,2013-05-25 05:19:00,
2013-05-25 01:24:00,35.0,32.6,30.38,ENE,62,0.0,0.0,91,0.00,,,0.00,WUHU216DAVISVP2,2013-05-25 05:24:00,
2013-05-25 01:29:00,34.8,32.4,30.38,ENE,62,0.0,0.0,91,0.00,,,0.00,WUHU216DAVISVP2,2013-05-25 05:29:00,
2013-05-25 01:34:00,34.6,32.2,30.38,ENE,62,0.0,0.0,91,0.00,,,0.00,WUHU216DAVISVP2,2013-05-25 05:34:00,
2013-05-25 01:39:00,34.5,32.1,30.38,ENE,62,0.0,0.0,91,0.00,,,0.00,WUHU216DAVISVP2,2013-05-25 05:39:00,
2013-05-25 01:44:00,34.3,32.2,30.38,ENE,62,0.0,0.0,92,0.00,,,0.00,WUHU216DAVISVP2,2013-05-25 05:44:00,
2013-05-25 01:50:00,34.2,32.1,30.38,ENE,62,0.0,0.0,92,0.00,,,0.00,WUHU216DAVISVP2,2013-05-25 05:50:00,
2013-05-25 01:55:00,34.1,32.0,30.38,ENE,62,0.0,0.0,92,0.00,,,0.00,WUHU216DAVISVP2,2013-05-25 05:55:00,
2013-05-25 02:00:00,34.0,31.9,30.38,ENE,62,0.0,0.0,92,0.00,,,0.00,WUHU216DAVISVP2,2013-05-25 06:00:00,
2013-05-25 02:05:00,34.1,32.2,30.38,ENE,62,0.0,0.0,93,0.00,,,0.00,WUHU216DAVISVP2,2013-05-25 06:05:00,
2013-05-25 02:10:00,34.2,32.3,30.38,ENE,62,0.0,0.0,93,0.00,,,0.00,WUHU216DAVISVP2,2013-05-25 06:10:00,
2013-05-25 02:15:00,34.4,32.8,30.38,ENE,62,0.0,0.0,94,0.00,,,0.00,WUHU216DAVISVP2,2013-05-25 06:15:00,
2013-05-25 02:20:00,34.6,33.0,30.38,ENE,62,0.0,0.0,94,0.00,,,0.00,WUHU216DAVISVP2,2013-05-25 06:20:00,
2013-05-25 02:25:00,34.7,33.1,30.38,ENE,62,0.0,0.0,94,0.00,,,0.00,WUHU216DAVISVP2,2013-05-25 06:25:00,
2013-05-25 02:30:00,35.1,33.5,30.38,ENE,62,0.0,0.0,94,0.00,,,0.00,WUHU216DAVISVP2,2013-05-25 06:30:00,
2013-05-25 02:35:00,35.3,33.7,30.37,ENE,62,0.0,0.0,94,0.00,,,0.00,WUHU216DAVISVP2,2013-05-25 06:35:00,
2013-05-25 02:40:00,35.6,34.3,30.38,ENE,62,0.0,0.0,95,0.00,,,0.00,WUHU216DAVISVP2,2013-05-25 06:40:00,
2013-05-25 02:45:00,35.8,34.5,30.38,ENE,62,0.0,0.0,95,0.00,,,0.00,WUHU216DAVISVP2,2013-05-25 06:45:00,
2013-05-25 02:50:00,36.1,34.8,30.38,ENE,62,0.0,0.0,95,0.00,,,0.00,WUHU216DAVISVP2,2013-05-25 06:50:00,
2013-05-25 02:55:00,36.4,35.1,30.38,ENE,62,0.0,0.0,95,0.00,,,0.00,WUHU216DAVISVP2,2013-05-25 06:55:00,
2013-05-25 03:00:00,36.6,35.3,30.38,ENE,62,0.0,0.0,95,0.00,,,0.00,WUHU216DAVISVP2,2013-05-25 07:00:00,
2013-05-25 03:05:00,36.8,35.5,30.37,ENE,62,0.0,0.0,95,0.00,,,0.00,WUHU216DAVISVP2,2013-05-25 07:05:00,
2013-05-25 03:10:00,37.0,35.7,30.37,ENE,62,0.0,0.0,95,0.00,,,0.00,WUHU216DAVISVP2,2013-05-25 07:10:00,
2013-05-25 03:15:00,37.1,35.8,30.37,ENE,62,0.0,0.0,95,0.00,,,0.00,WUHU216DAVISVP2,2013-05-25 07:15:00,
2013-05-25 03:20:00,37.3,36.0,30.37,ENE,62,0.0,0.0,95,0.00,,,0.00,WUHU216DAVISVP2,2013-05-25 07:20:00,
2013-05-25 03:25:00,37.4,36.1,30.37,ENE,62,0.0,0.0,95,0.00,,,0.00,WUHU216DAVISVP2,2013-05-25 07:25:00,
2013-05-25 03:30:00,37.5,36.2,30.37,ENE,62,0.0,0.0,95,0.00,,,0.00,WUHU216DAVISVP2,2013-05-25 07:30:00,
2013-05-25 03:35:00,37.5,36.2,30.37,ENE,62,0.0,0.0,95,0.00,,,0.00,WUHU216DAVISVP2,2013-05-25 07:35:00,
2013-05-25 03:41:00,37.4,35.8,30.37,ENE,62,0.0,0.0,94,0.00,,,0.00,WUHU216DAVISVP2,2013-05-25 07:41:00,
2013-05-25 03:46:00,37.4,35.8,30.37,ENE,62,0.0,0.0,94,0.00,,,0.00,WUHU216DAVISVP2,2013-05-25 07:46:00,
2013-05-25 03:51:00,37.2,35.6,30.37,ENE,62,0.0,0.0,94,0.00,,,0.00,WUHU216DAVISVP2,2013-05-25 07:51:00,
2013-05-25 03:56:00,36.9,35.3,30.37,ENE,62,0.0,0.0,94,0.00,,,0.00,WUHU216DAVISVP2,2013-05-25 07:56:00,
2013-05-25 04:01:00,36.7,35.1,30.37,ENE,62,0.0,0.0,94,0.00,,,0.00,WUHU216DAVISVP2,2013-05-25 08:01:00,
2013-05-25 04:06:00,36.5,34.9,30.37,ENE,62,0.0,0.0,94,0.00,,,0.00,WUHU216DAVISVP2,2013-05-25 08:06:00,
2013-05-25 04:11:00,36.3,34.7,30.37,ENE,62,0.0,0.0,94,0.00,,,0.00,WUHU216DAVISVP2,2013-05-25 08:11:00,
2013-05-25 04:16:00,36.1,34.5,30.37,ENE,62,0.0,0.0,94,0.00,,,0.00,WUHU216DAVISVP2,2013-05-25 08:16:00,
2013-05-25 04:21:00,36.1,34.5,30.38,ENE,62,0.0,0.0,94,0.00,,,0.00,WUHU216DAVISVP2,2013-05-25 08:21:00,
2013-05-25 04:26:00,36.0,34.4,30.38,ENE,62,0.0,0.0,94,0.00,,,0.00,WUHU216DAVISVP2,2013-05-25 08:26:00,
2013-05-25 04:31:00,35.9,34.3,30.37,ENE,62,0.0,0.0,94,0.00,,,0.00,WUHU216DAVISVP2,2013-05-25 08:31:00,
2013-05-25 04:36:00,35.7,34.1,30.38,ENE,62,0.0,0.0,94,0.00,,,0.00,WUHU216DAVISVP2,2013-05-25 08:36:00,
2013-05-25 04:41:00,35.6,34.0,30.38,ENE,62,0.0,0.0,94,0.00,,,0.00,WUHU216DAVISVP2,2013-05-25 08:41:00,
2013-05-25 04:46:00,35.4,33.8,30.38,ENE,62,0.0,0.0,94,0.00,,,0.00,WUHU216DAVISVP2,2013-05-25 08:46:00,
2013-05-25 04:51:00,35.3,33.7,30.38,ENE,62,0.0,0.0,94,0.00,,,0.00,WUHU216DAVISVP2,2013-05-25 08:51:00,
2013-05-25 04:56:00,35.2,33.6,30.39,ENE,62,0.0,0.0,94,0.00,,,0.00,WUHU216DAVISVP2,2013-05-25 08:56:00,
2013-05-25 05:01:00,35.1,33.5,30.39,ENE,62,0.0,0.0,94,0.00,,,0.00,WUHU216DAVISVP2,2013-05-25 09:01:00,
2013-05-25 05:06:00,35.1,33.8,30.39,ENE,62,0.0,0.0,95,0.00,,,0.00,WUHU216DAVISVP2,2013-05-25 09:06:00,
2013-05-25 05:11:00,35.1,33.8,30.39,ENE,62,0.0,0.0,95,0.00,,,0.00,WUHU216DAVISVP2,2013-05-25 09:11:00,
2013-05-25 05:16:00,35.3,34.0,30.39,ENE,62,0.0,0.0,95,0.00,,,0.00,WUHU216DAVISVP2,2013-05-25 09:16:00,
2013-05-25 05:21:00,35.4,34.1,30.39,ENE,62,0.0,0.0,95,0.00,,,0.00,WUHU216DAVISVP2,2013-05-25 09:21:00,
2013-05-25 05:26:00,35.7,34.4,30.39,ENE,62,0.0,0.0,95,0.00,,,0.00,WUHU216DAVISVP2,2013-05-25 09:26:00,
2013-05-25 05:31:00,35.8,34.7,30.39,ENE,62,0.0,0.0,96,0.00,,,0.00,WUHU216DAVISVP2,2013-05-25 09:31:00,
2013-05-25 05:37:00,36.0,34.9,30.40,ENE,62,0.0,0.0,96,0.00,,,0.00,WUHU216DAVISVP2,2013-05-25 09:37:00,
2013-05-25 05:42:00,36.2,35.1,30.39,ENE,62,0.0,0.0,96,0.00,,,0.00,WUHU216DAVISVP2,2013-05-25 09:42:00,
2013-05-25 05:47:00,36.3,35.2,30.40,ENE,62,0.0,0.0,96,0.00,,,0.00,WUHU216DAVISVP2,2013-05-25 09:47:00,
2013-05-25 05:52:00,36.4,35.3,30.40,ENE,62,0.0,0.0,96,0.00,,,0.00,WUHU216DAVISVP2,2013-05-25 09:52:00,
2013-05-25 05:57:00,36.4,35.3,30.40,ENE,62,0.0,0.0,96,0.00,,,0.00,WUHU216DAVISVP2,2013-05-25 09:57:00,
2013-05-25 06:02:00,36.2,34.9,30.40,ENE,62,0.0,0.0,95,0.00,,,0.00,WUHU216DAVISVP2,2013-05-25 10:02:00,
2013-05-25 06:07:00,36.1,34.8,30.40,ENE,62,0.0,0.0,95,0.00,,,0.00,WUHU216DAVISVP2,2013-05-25 10:07:00,
2013-05-25 06:12:00,36.0,34.7,30.40,ENE,62,0.0,0.0,95,0.00,,,0.00,WUHU216DAVISVP2,2013-05-25 10:12:00,
2013-05-25 06:17:00,35.9,34.6,30.40,ENE,62,0.0,0.0,95,0.00,,,0.00,WUHU216DAVISVP2,2013-05-25 10:17:00,
2013-05-25 06:22:00,35.8,34.5,30.40,ENE,62,0.0,0.0,95,0.00,,,0.00,WUHU216DAVISVP2,2013-05-25 10:22:00,
2013-05-25 06:27:00,35.8,34.5,30.40,ENE,62,0.0,0.0,95,0.00,,,0.00,WUHU216DAVISVP2,2013-05-25 10:27:00,
2013-05-25 06:32:00,35.7,34.4,30.40,ENE,62,0.0,0.0,95,0.00,,,0.00,WUHU216DAVISVP2,2013-05-25 10:32:00,
2013-05-25 06:37:00,35.7,34.4,30.40,ENE,62,0.0,0.0,95,0.00,,,0.00,WUHU216DAVISVP2,2013-05-25 10:37:00,
2013-05-25 06:42:00,35.7,34.4,30.39,ENE,62,0.0,0.0,95,0.00,,,0.00,WUHU216DAVISVP2,2013-05-25 10:42:00,
2013-05-25 06:47:00,35.8,34.5,30.40,ENE,62,0.0,0.0,95,0.00,,,0.00,WUHU216DAVISVP2,2013-05-25 10:47:00,
2013-05-25 06:52:00,35.9,34.6,30.39,ENE,62,0.0,0.0,95,0.00,,,0.00,WUHU216DAVISVP2,2013-05-25 10:52:00,
2013-05-25 06:57:00,35.9,34.8,30.39,ENE,62,0.0,0.0,96,0.00,,,0.00,WUHU216DAVISVP2,2013-05-25 10:57:00,
2013-05-25 07:02:00,36.1,35.0,30.39,ENE,62,0.0,0.0,96,0.00,,,0.00,WUHU216DAVISVP2,2013-05-25 11:02:00,
2013-05-25 07:07:00,36.3,35.2,30.39,ENE,62,0.0,0.0,96,0.00,,,0.00,WUHU216DAVISVP2,2013-05-25 11:07:00,
2013-05-25 07:12:00,36.7,35.6,30.40,ENE,62,0.0,0.0,96,0.00,,,0.00,WUHU216DAVISVP2,2013-05-25 11:12:00,
2013-05-25 07:17:00,37.0,35.9,30.40,ENE,62,0.0,0.0,96,0.00,,,0.00,WUHU216DAVISVP2,2013-05-25 11:17:00,
2013-05-25 07:23:00,37.5,36.4,30.40,ENE,62,0.0,0.0,96,0.00,,,0.00,WUHU216DAVISVP2,2013-05-25 11:23:00,
2013-05-25 07:27:00,37.9,36.8,30.40,ENE,62,0.0,0.0,96,0.00,,,0.00,WUHU216DAVISVP2,2013-05-25 11:27:00,
2013-05-25 07:33:00,38.2,37.1,30.39,ENE,62,0.0,0.0,96,0.00,,,0.00,WUHU216DAVISVP2,2013-05-25 11:33:00,
2013-05-25 07:38:00,38.7,37.6,30.39,ENE,62,0.0,0.0,96,0.00,,,0.00,WUHU216DAVISVP2,2013-05-25 11:38:00,
2013-05-25 07:43:00,39.1,38.0,30.40,ENE,62,0.0,0.0,96,0.00,,,0.00,WUHU216DAVISVP2,2013-05-25 11:43:00,
2013-05-25 07:48:00,39.7,38.9,30.40,ENE,62,0.0,0.0,97,0.00,,,0.00,WUHU216DAVISVP2,2013-05-25 11:48:00,
2013-05-25 07:53:00,40.2,39.4,30.40,ENE,62,0.0,0.0,97,0.00,,,0.00,WUHU216DAVISVP2,2013-05-25 11:53:00,
2013-05-25 07:58:00,40.5,39.7,30.40,ENE,62,0.0,0.0,97,0.00,,,0.00,WUHU216DAVISVP2,2013-05-25 11:58:00,
2013-05-25 08:03:00,41.3,40.5,30.40,ENE,62,0.0,0.0,97,0.00,,,0.00,WUHU216DAVISVP2,2013-05-25 12:03:00,
2013-05-25 08:08:00,42.1,41.3,30.40,ENE,62,0.0,2.0,97,0.00,,,0.00,WUHU216DAVISVP2,2013-05-25 12:08:00,
2013-05-25 08:13:00,42.9,41.8,30.40,ENE,63,0.0,2.0,96,0.00,,,0.00,WUHU216DAVISVP2,2013-05-25 12:13:00,
2013-05-25 08:18:00,43.6,41.9,30.40,ENE,63,0.0,2.0,94,0.00,,,0.00,WUHU216DAVISVP2,2013-05-25 12:18:00,
2013-05-25 08:23:00,44.1,41.6,30.40,NE,47,0.0,4.0,91,0.00,,,0.00,WUHU216DAVISVP2,2013-05-25 12:23:00,
2013-05-25 08:28:00,44.5,40.6,30.40,NW,322,0.0,4.0,86,0.00,,,0.00,WUHU216DAVISVP2,2013-05-25 12:28:00,
2013-05-25 08:33:00,45.0,39.8,30.40,NE,53,0.0,4.0,82,0.00,,,0.00,WUHU216DAVISVP2,2013-05-25 12:33:00,
2013-05-25 08:38:00,45.6,40.4,30.40,NE,43,0.0,10.0,82,0.00,,,0.00,WUHU216DAVISVP2,2013-05-25 12:38:00,
2013-05-25 08:43:00,46.4,40.3,30.41,NNE,24,4.0,10.0,79,0.00,,,0.00,WUHU216DAVISVP2,2013-05-25 12:43:00,
2013-05-25 08:48:00,46.9,40.4,30.41,NNE,18,0.0,8.0,78,0.00,,,0.00,WUHU216DAVISVP2,2013-05-25 12:48:00,
2013-05-25 08:53:00,47.5,41.0,30.41,NNE,28,6.0,8.0,78,0.00,,,0.00,WUHU216DAVISVP2,2013-05-25 12:53:00,
2013-05-25 08:58:00,47.8,40.3,30.41,ENE,59,4.0,8.0,75,0.00,,,0.00,WUHU216DAVISVP2,2013-05-25 12:58:00,
2013-05-25 09:04:00,48.2,40.0,30.41,WSW,252,2.0,14.0,73,0.00,,,0.00,WUHU216DAVISVP2,2013-05-25 13:04:00,
2013-05-25 09:09:00,48.2,39.7,30.42,NW,326,0.0,14.0,72,0.00,,,0.00,WUHU216DAVISVP2,2013-05-25 13:09:00,
2013-05-25 09:14:00,48.1,39.6,30.42,ENE,67,0.0,8.0,72,0.00,,,0.00,WUHU216DAVISVP2,2013-05-25 13:14:00,
2013-05-25 09:19:00,48.3,39.4,30.41,NNE,28,2.0,6.0,71,0.00,,,0.00,WUHU216DAVISVP2,2013-05-25 13:19:00,
2013-05-25 09:24:00,48.7,39.8,30.41,ENE,73,0.0,8.0,71,0.00,,,0.00,WUHU216DAVISVP2,2013-05-25 13:24:00,
2013-05-25 09:29:00,49.1,40.2,30.41,North,360,0.0,10.0,71,0.00,,,0.00,WUHU216DAVISVP2,2013-05-25 13:29:00,
2013-05-25 09:34:00,49.3,40.0,30.42,WNW,298,4.0,10.0,70,0.00,,,0.00,WUHU216DAVISVP2,2013-05-25 13:34:00,
2013-05-25 09:39:00,49.1,39.8,30.42,NE,42,2.0,10.0,70,0.00,,,0.00,WUHU216DAVISVP2,2013-05-25 13:39:00,
2013-05-25 09:44:00,49.6,40.3,30.42,ENE,73,6.0,12.0,70,0.00,,,0.00,WUHU216DAVISVP2,2013-05-25 13:44:00,
2013-05-25 09:49:00,49.9,40.6,30.42,NNE,18,0.0,12.0,70,0.00,,,0.00,WUHU216DAVISVP2,2013-05-25 13:49:00,
2013-05-25 09:54:00,49.7,40.0,30.42,NW,312,4.0,18.0,69,0.00,,,0.00,WUHU216DAVISVP2,2013-05-25 13:54:00,
2013-05-25 09:59:00,49.8,39.8,30.42,NE,35,4.0,18.0,68,0.00,,,0.00,WUHU216DAVISVP2,2013-05-25 13:59:00,
2013-05-25 10:04:00,50.2,40.2,30.42,East,80,4.0,16.0,68,0.00,,,0.00,WUHU216DAVISVP2,2013-05-25 14:04:00,
2013-05-25 10:09:00,50.6,40.5,30.42,NW,323,0.0,16.0,68,0.00,,,0.00,WUHU216DAVISVP2,2013-05-25 14:09:00,
2013-05-25 10:14:00,50.7,41.0,30.42,NNW,329,4.0,10.0,69,0.00,,,0.00,WUHU216DAVISVP2,2013-05-25 14:14:00,
2013-05-25 10:19:00,51.0,40.5,30.43,ENE,65,4.0,8.0,67,0.00,,,0.00,WUHU216DAVISVP2,2013-05-25 14:19:00,
2013-05-25 10:24:00,51.3,40.0,30.43,NNE,19,0.0,10.0,65,0.00,,,0.00,WUHU216DAVISVP2,2013-05-25 14:24:00,
2013-05-25 10:29:00,51.5,40.2,30.43,NNE,17,0.0,10.0,65,0.00,,,0.00,WUHU216DAVISVP2,2013-05-25 14:29:00,
2013-05-25 10:34:00,51.9,41.4,30.43,NW,311,4.0,12.0,67,0.00,,,0.00,WUHU216DAVISVP2,2013-05-25 14:34:00,
2013-05-25 10:39:00,51.7,40.0,30.43,WNW,299,2.0,12.0,64,0.00,,,0.00,WUHU216DAVISVP2,2013-05-25 14:39:00,
2013-05-25 10:44:00,51.4,39.3,30.43,NE,44,2.0,12.0,63,0.00,,,0.00,WUHU216DAVISVP2,2013-05-25 14:44:00,
2013-05-25 10:49:00,51.2,38.7,30.43,NE,39,2.0,12.0,62,0.00,,,0.00,WUHU216DAVISVP2,2013-05-25 14:49:00,
2013-05-25 10:54:00,51.1,39.5,30.43,WNW,293,0.0,10.0,64,0.00,,,0.00,WUHU216DAVISVP2,2013-05-25 14:54:00,
2013-05-25 10:59:00,51.4,40.1,30.43,West,271,4.0,8.0,65,0.00,,,0.00,WUHU216DAVISVP2,2013-05-25 14:59:00,
2013-05-25 11:04:00,52.2,40.1,30.43,ESE,119,2.0,10.0,63,0.00,,,0.00,WUHU216DAVISVP2,2013-05-25 15:04:00,
2013-05-25 11:09:00,52.1,40.0,30.43,West,275,6.0,10.0,63,0.00,,,0.00,WUHU216DAVISVP2,2013-05-25 15:09:00,
2013-05-25 11:14:00,51.9,39.8,30.43,NNE,16,4.0,12.0,63,0.00,,,0.00,WUHU216DAVISVP2,2013-05-25 15:14:00,
2013-05-25 11:19:00,52.0,39.9,30.42,WNW,296,6.0,20.0,63,0.00,,,0.00,WUHU216DAVISVP2,2013-05-25 15:19:00,
2013-05-25 11:25:00,52.0,39.5,30.42,WNW,286,4.0,20.0,62,0.00,,,0.00,WUHU216DAVISVP2,2013-05-25 15:25:00,
2013-05-25 11:30:00,52.0,39.9,30.42,ENE,59,2.0,20.0,63,0.00,,,0.00,WUHU216DAVISVP2,2013-05-25 15:30:00,
2013-05-25 11:35:00,52.5,40.4,30.42,East,96,2.0,20.0,63,0.00,,,0.00,WUHU216DAVISVP2,2013-05-25 15:35:00,
2013-05-25 11:40:00,52.8,40.7,30.42,NW,306,4.0,8.0,63,0.00,,,0.00,WUHU216DAVISVP2,2013-05-25 15:40:00,
2013-05-25 11:45:00,53.1,40.5,30.42,WNW,291,4.0,14.0,62,0.00,,,0.00,WUHU216DAVISVP2,2013-05-25 15:45:00,
2013-05-25 11:50:00,53.0,40.0,30.42,WSW,249,2.0,14.0,61,0.00,,,0.00,WUHU216DAVISVP2,2013-05-25 15:50:00,
2013-05-25 11:55:00,53.2,38.9,30.42,WSW,247,2.0,10.0,58,0.00,,,0.00,WUHU216DAVISVP2,2013-05-25 15:55:00,
2013-05-25 12:00:00,52.9,39.9,30.41,WNW,294,4.0,10.0,61,0.00,,,0.00,WUHU216DAVISVP2,2013-05-25 16:00:00,
2013-05-25 12:05:00,53.3,39.9,30.42,NNW,339,4.0,22.0,60,0.00,,,0.00,WUHU216DAVISVP2,2013-05-25 16:05:00,
2013-05-25 12:10:00,53.3,38.5,30.41,NW,306,8.0,22.0,57,0.00,,,0.00,WUHU216DAVISVP2,2013-05-25 16:10:00,
2013-05-25 12:15:00,52.7,38.9,30.41,NNW,340,2.0,8.0,59,0.00,,,0.00,WUHU216DAVISVP2,2013-05-25 16:15:00,
2013-05-25 12:20:00,53.0,40.0,30.41,West,275,4.0,6.0,61,0.00,,,0.00,WUHU216DAVISVP2,2013-05-25 16:20:00,
2013-05-25 12:25:00,53.5,40.9,30.41,NNE,20,2.0,8.0,62,0.00,,,0.00,WUHU216DAVISVP2,2013-05-25 16:25:00,
2013-05-25 12:30:00,53.6,39.7,30.41,NW,321,6.0,12.0,59,0.00,,,0.00,WUHU216DAVISVP2,2013-05-25 16:30:00,
2013-05-25 12:35:00,53.8,39.0,30.41,WNW,298,4.0,12.0,57,0.00,,,0.00,WUHU216DAVISVP2,2013-05-25 16:35:00,
2013-05-25 12:40:00,53.4,39.5,30.41,NNE,15,4.0,10.0,59,0.00,,,0.00,WUHU216DAVISVP2,2013-05-25 16:40:00,
2013-05-25 12:45:00,54.1,41.5,30.41,WNW,296,6.0,8.0,62,0.00,,,0.00,WUHU216DAVISVP2,2013-05-25 16:45:00,
2013-05-25 12:50:00,54.5,39.7,30.41,WNW,303,0.0,12.0,57,0.00,,,0.00,WUHU216DAVISVP2,2013-05-25 16:50:00,
2013-05-25 12:55:00,54.5,38.7,30.41,NW,304,4.0,12.0,55,0.00,,,0.00,WUHU216DAVISVP2,2013-05-25 16:55:00,
2013-05-25 13:00:00,54.4,38.1,30.41,NNE,13,2.0,16.0,54,0.00,,,0.00,WUHU216DAVISVP2,2013-05-25 17:00:00,
2013-05-25 13:05:00,54.8,39.0,30.41,NE,43,2.0,16.0,55,0.00,,,0.00,WUHU216DAVISVP2,2013-05-25 17:05:00,
2013-05-25 13:10:00,54.8,39.0,30.41,NNE,16,4.0,20.0,55,0.00,,,0.00,WUHU216DAVISVP2,2013-05-25 17:10:00,
2013-05-25 13:15:00,54.8,39.5,30.41,NW,323,2.0,20.0,56,0.00,,,0.00,WUHU216DAVISVP2,2013-05-25 17:15:00,
2013-05-25 13:20:00,55.2,37.4,30.41,NNE,27,4.0,10.0,51,0.00,,,0.00,WUHU216DAVISVP2,2013-05-25 17:20:00,
2013-05-25 13:25:00,55.3,37.5,30.41,North,5,4.0,16.0,51,0.00,,,0.00,WUHU216DAVISVP2,2013-05-25 17:25:00,
2013-05-25 13:31:00,55.3,38.0,30.41,ENE,60,0.0,16.0,52,0.00,,,0.00,WUHU216DAVISVP2,2013-05-25 17:31:00,
2013-05-25 13:36:00,56.1,39.2,30.41,WNW,296,4.0,8.0,53,0.00,,,0.00,WUHU216DAVISVP2,2013-05-25 17:36:00,
2013-05-25 13:41:00,56.0,39.6,30.41,WSW,240,6.0,10.0,54,0.00,,,0.00,WUHU216DAVISVP2,2013-05-25 17:41:00,
2013-05-25 13:46:00,56.2,39.8,30.40,NW,316,2.0,10.0,54,0.00,,,0.00,WUHU216DAVISVP2,2013-05-25 17:46:00,
2013-05-25 13:51:00,56.3,38.4,30.40,NW,309,4.0,14.0,51,0.00,,,0.00,WUHU216DAVISVP2,2013-05-25 17:51:00,
2013-05-25 13:56:00,55.8,39.0,30.40,WNW,290,2.0,14.0,53,0.00,,,0.00,WUHU216DAVISVP2,2013-05-25 17:56:00,
2013-05-25 14:01:00,55.4,37.1,30.40,West,260,6.0,8.0,50,0.00,,,0.00,WUHU216DAVISVP2,2013-05-25 18:01:00,
2013-05-25 14:06:00,55.8,39.0,30.39,West,259,8.0,12.0,53,0.00,,,0.00,WUHU216DAVISVP2,2013-05-25 18:06:00,
2013-05-25 14:11:00,55.7,37.9,30.39,WSW,241,6.0,12.0,51,0.00,,,0.00,WUHU216DAVISVP2,2013-05-25 18:11:00,
2013-05-25 14:16:00,55.4,38.6,30.39,NE,35,4.0,12.0,53,0.00,,,0.00,WUHU216DAVISVP2,2013-05-25 18:16:00,
2013-05-25 14:21:00,55.7,39.8,30.39,NNE,15,4.0,12.0,55,0.00,,,0.00,WUHU216DAVISVP2,2013-05-25 18:21:00,
2013-05-25 14:26:00,55.8,38.5,30.39,SW,219,10.0,12.0,52,0.00,,,0.00,WUHU216DAVISVP2,2013-05-25 18:26:00,
2013-05-25 14:31:00,55.7,38.4,30.39,WNW,286,4.0,12.0,52,0.00,,,0.00,WUHU216DAVISVP2,2013-05-25 18:31:00,
2013-05-25 14:36:00,55.4,37.6,30.38,WSW,251,4.0,12.0,51,0.00,,,0.00,WUHU216DAVISVP2,2013-05-25 18:36:00,
2013-05-25 14:41:00,55.3,38.5,30.38,NW,313,2.0,12.0,53,0.00,,,0.00,WUHU216DAVISVP2,2013-05-25 18:41:00,
2013-05-25 14:46:00,55.6,38.3,30.38,NW,311,2.0,12.0,52,0.00,,,0.00,WUHU216DAVISVP2,2013-05-25 18:46:00,
2013-05-25 14:51:00,55.5,37.7,30.38,WNW,288,2.0,10.0,51,0.00,,,0.00,WUHU216DAVISVP2,2013-05-25 18:51:00,
2013-05-25 14:56:00,55.8,39.0,30.38,SW,219,2.0,10.0,53,0.00,,,0.00,WUHU216DAVISVP2,2013-05-25 18:56:00,
2013-05-25 15:01:00,56.2,39.3,30.38,NE,42,2.0,12.0,53,0.00,,,0.00,WUHU216DAVISVP2,2013-05-25 19:01:00,
2013-05-25 15:06:00,56.4,39.0,30.38,NNE,28,6.0,12.0,52,0.00,,,0.00,WUHU216DAVISVP2,2013-05-25 19:06:00,
2013-05-25 15:11:00,56.7,39.3,30.38,North,355,4.0,16.0,52,0.00,,,0.00,WUHU216DAVISVP2,2013-05-25 19:11:00,
2013-05-25 15:16:00,56.5,38.1,30.39,North,5,4.0,16.0,50,0.00,,,0.00,WUHU216DAVISVP2,2013-05-25 19:16:00,
2013-05-25 15:21:00,55.9,38.0,30.39,NW,323,2.0,14.0,51,0.00,,,0.00,WUHU216DAVISVP2,2013-05-25 19:21:00,
2013-05-25 15:26:00,56.1,38.7,30.38,WNW,285,4.0,14.0,52,0.00,,,0.00,WUHU216DAVISVP2,2013-05-25 19:26:00,
2013-05-25 15:32:00,56.2,38.3,30.38,North,355,2.0,14.0,51,0.00,,,0.00,WUHU216DAVISVP2,2013-05-25 19:32:00,
2013-05-25 15:37:00,56.2,38.3,30.38,WNW,300,6.0,10.0,51,0.00,,,0.00,WUHU216DAVISVP2,2013-05-25 19:37:00,
2013-05-25 15:42:00,56.2,40.3,30.38,WSW,244,2.0,8.0,55,0.00,,,0.00,WUHU216DAVISVP2,2013-05-25 19:42:00,
2013-05-25 15:47:00,56.5,39.1,30.38,North,5,6.0,12.0,52,0.00,,,0.00,WUHU216DAVISVP2,2013-05-25 19:47:00,
2013-05-25 15:52:00,56.5,38.6,30.38,NW,305,4.0,12.0,51,0.00,,,0.00,WUHU216DAVISVP2,2013-05-25 19:52:00,
2013-05-25 15:57:00,56.3,39.4,30.38,West,266,4.0,12.0,53,0.00,,,0.00,WUHU216DAVISVP2,2013-05-25 19:57:00,
2013-05-25 16:02:00,56.3,38.9,30.38,NW,315,0.0,14.0,52,0.00,,,0.00,WUHU216DAVISVP2,2013-05-25 20:02:00,
2013-05-25 16:07:00,57.1,39.2,30.38,South,184,0.0,14.0,51,0.00,,,0.00,WUHU216DAVISVP2,2013-05-25 20:07:00,
2013-05-25 16:12:00,56.9,39.0,30.38,NNE,15,0.0,10.0,51,0.00,,,0.00,WUHU216DAVISVP2,2013-05-25 20:12:00,
2013-05-25 16:17:00,56.9,39.5,30.37,NW,311,8.0,10.0,52,0.00,,,0.00,WUHU216DAVISVP2,2013-05-25 20:17:00,
2013-05-25 16:22:00,57.1,40.2,30.37,NW,313,8.0,10.0,53,0.00,,,0.00,WUHU216DAVISVP2,2013-05-25 20:22:00,
2013-05-25 16:27:00,57.5,41.0,30.37,NE,45,8.0,10.0,54,0.00,,,0.00,WUHU216DAVISVP2,2013-05-25 20:27:00,
2013-05-25 16:32:00,57.8,39.3,30.36,ENE,69,8.0,16.0,50,0.00,,,0.00,WUHU216DAVISVP2,2013-05-25 20:32:00,
2013-05-25 16:37:00,57.6,39.6,30.37,WNW,290,4.0,16.0,51,0.00,,,0.00,WUHU216DAVISVP2,2013-05-25 20:37:00,
2013-05-25 16:42:00,57.5,37.9,30.36,WNW,300,2.0,12.0,48,0.00,,,0.00,WUHU216DAVISVP2,2013-05-25 20:42:00,
2013-05-25 16:47:00,57.1,38.1,30.36,NNE,28,4.0,12.0,49,0.00,,,0.00,WUHU216DAVISVP2,2013-05-25 20:47:00,
2013-05-25 16:52:00,57.3,38.3,30.36,NW,313,4.0,16.0,49,0.00,,,0.00,WUHU216DAVISVP2,2013-05-25 20:52:00,
2013-05-25 16:57:00,56.8,37.3,30.36,NNW,332,6.0,16.0,48,0.00,,,0.00,WUHU216DAVISVP2,2013-05-25 20:57:00,
2013-05-25 17:02:00,56.7,38.3,30.36,WNW,298,8.0,12.0,50,0.00,,,0.00,WUHU216DAVISVP2,2013-05-25 21:02:00,
2013-05-25 17:07:00,57.1,37.6,30.36,ENE,57,4.0,14.0,48,0.00,,,0.00,WUHU216DAVISVP2,2013-05-25 21:07:00,
2013-05-25 17:12:00,57.3,38.8,30.37,NNE,29,2.0,14.0,50,0.00,,,0.00,WUHU216DAVISVP2,2013-05-25 21:12:00,
2013-05-25 17:18:00,57.6,38.6,30.36,NW,304,2.0,10.0,49,0.00,,,0.00,WUHU216DAVISVP2,2013-05-25 21:18:00,
2013-05-25 17:23:00,57.3,37.7,30.36,NW,315,2.0,10.0,48,0.00,,,0.00,WUHU216DAVISVP2,2013-05-25 21:23:00,
2013-05-25 17:28:00,57.3,39.3,30.36,WNW,303,8.0,10.0,51,0.00,,,0.00,WUHU216DAVISVP2,2013-05-25 21:28:00,
2013-05-25 17:33:00,57.5,38.5,30.37,NW,313,0.0,10.0,49,0.00,,,0.00,WUHU216DAVISVP2,2013-05-25 21:33:00,
2013-05-25 17:38:00,57.5,37.4,30.37,WNW,302,2.0,12.0,47,0.00,,,0.00,WUHU216DAVISVP2,2013-05-25 21:38:00,
2013-05-25 17:43:00,56.8,37.8,30.36,WNW,297,0.0,12.0,49,0.00,,,0.00,WUHU216DAVISVP2,2013-05-25 21:43:00,
2013-05-25 17:48:00,56.7,37.7,30.36,NW,321,2.0,10.0,49,0.00,,,0.00,WUHU216DAVISVP2,2013-05-25 21:48:00,
2013-05-25 17:53:00,56.2,37.3,30.36,North,355,2.0,12.0,49,0.00,,,0.00,WUHU216DAVISVP2,2013-05-25 21:53:00,
2013-05-25 17:58:00,55.8,37.9,30.36,NNW,338,0.0,12.0,51,0.00,,,0.00,WUHU216DAVISVP2,2013-05-25 21:58:00,
2013-05-25 18:03:00,55.6,38.3,30.36,NNE,15,2.0,12.0,52,0.00,,,0.00,WUHU216DAVISVP2,2013-05-25 22:03:00,
2013-05-25 18:08:00,55.5,37.1,30.37,NW,306,6.0,10.0,50,0.00,,,0.00,WUHU216DAVISVP2,2013-05-25 22:08:00,
2013-05-25 18:13:00,55.1,37.3,30.36,NE,38,2.0,16.0,51,0.00,,,0.00,WUHU216DAVISVP2,2013-05-25 22:13:00,
2013-05-25 18:18:00,54.9,38.6,30.36,ENE,63,2.0,16.0,54,0.00,,,0.00,WUHU216DAVISVP2,2013-05-25 22:18:00,
2013-05-25 18:23:00,54.7,37.4,30.35,East,88,0.0,8.0,52,0.00,,,0.00,WUHU216DAVISVP2,2013-05-25 22:23:00,
2013-05-25 18:28:00,54.8,36.0,30.35,NNW,347,0.0,10.0,49,0.00,,,0.00,WUHU216DAVISVP2,2013-05-25 22:28:00,
2013-05-25 18:33:00,54.4,36.1,30.35,SE,126,6.0,12.0,50,0.00,,,0.00,WUHU216DAVISVP2,2013-05-25 22:33:00,
2013-05-25 18:38:00,54.1,35.9,30.34,NNE,13,2.0,18.0,50,0.00,,,0.00,WUHU216DAVISVP2,2013-05-25 22:38:00,
2013-05-25 18:43:00,54.0,36.8,30.35,WNW,298,6.0,18.0,52,0.00,,,0.00,WUHU216DAVISVP2,2013-05-25 22:43:00,
2013-05-25 18:48:00,53.9,37.2,30.35,NNE,21,0.0,12.0,53,0.00,,,0.00,WUHU216DAVISVP2,2013-05-25 22:48:00,
2013-05-25 18:53:00,53.8,36.1,30.34,North,355,2.0,12.0,51,0.00,,,0.00,WUHU216DAVISVP2,2013-05-25 22:53:00,
2013-05-25 18:58:00,53.8,36.1,30.34,SE,130,6.0,10.0,51,0.00,,,0.00,WUHU216DAVISVP2,2013-05-25 22:58:00,
2013-05-25 19:03:00,53.7,35.0,30.34,NNW,341,2.0,10.0,49,0.00,,,0.00,WUHU216DAVISVP2,2013-05-25 23:03:00,
2013-05-25 19:08:00,53.5,35.8,30.34,NNW,336,0.0,8.0,51,0.00,,,0.00,WUHU216DAVISVP2,2013-05-25 23:08:00,
2013-05-25 19:13:00,53.5,35.3,30.34,NNW,340,0.0,6.0,50,0.00,,,0.00,WUHU216DAVISVP2,2013-05-25 23:13:00,
2013-05-25 19:18:00,53.5,37.8,30.34,West,267,0.0,6.0,55,0.00,,,0.00,WUHU216DAVISVP2,2013-05-25 23:18:00,
2013-05-25 19:23:00,53.3,34.1,30.34,NNE,22,4.0,6.0,48,0.00,,,0.00,WUHU216DAVISVP2,2013-05-25 23:23:00,
2013-05-25 19:28:00,53.2,32.3,30.34,NE,44,6.0,10.0,45,0.00,,,0.00,WUHU216DAVISVP2,2013-05-25 23:28:00,
2013-05-25 19:33:00,53.0,33.8,30.35,NNE,24,8.0,14.0,48,0.00,,,0.00,WUHU216DAVISVP2,2013-05-25 23:33:00,
2013-05-25 19:38:00,52.8,32.5,30.34,ENE,62,4.0,14.0,46,0.00,,,0.00,WUHU216DAVISVP2,2013-05-25 23:38:00,
2013-05-25 19:43:00,52.8,33.6,30.34,NNE,19,0.0,10.0,48,0.00,,,0.00,WUHU216DAVISVP2,2013-05-25 23:43:00,
2013-05-25 19:48:00,52.6,33.4,30.34,ESE,107,0.0,6.0,48,0.00,,,0.00,WUHU216DAVISVP2,2013-05-25 23:48:00,
2013-05-25 19:53:00,52.4,32.7,30.34,SW,234,0.0,6.0,47,0.00,,,0.00,WUHU216DAVISVP2,2013-05-25 23:53:00,
2013-05-25 19:59:00,52.2,32.5,30.34,East,90,0.0,8.0,47,0.00,,,0.00,WUHU216DAVISVP2,2013-05-25 23:59:00,
2013-05-25 20:04:00,51.9,33.3,30.34,NE,46,0.0,10.0,49,0.00,,,0.00,WUHU216DAVISVP2,2013-05-26 00:04:00,
2013-05-25 20:09:00,51.6,32.5,30.34,NE,46,0.0,10.0,48,0.00,,,0.00,WUHU216DAVISVP2,2013-05-26 00:09:00,
2013-05-25 20:14:00,51.4,32.8,30.34,NE,41,4.0,4.0,49,0.00,,,0.00,WUHU216DAVISVP2,2013-05-26 00:14:00,
2013-05-25 20:19:00,51.1,32.6,30.34,NE,34,0.0,6.0,49,0.00,,,0.00,WUHU216DAVISVP2,2013-05-26 00:19:00,
2013-05-25 20:24:00,50.8,32.8,30.34,ENE,63,0.0,6.0,50,0.00,,,0.00,WUHU216DAVISVP2,2013-05-26 00:24:00,
2013-05-25 20:29:00,50.5,34.0,30.34,South,173,4.0,6.0,53,0.00,,,0.00,WUHU216DAVISVP2,2013-05-26 00:29:00,
2013-05-25 20:34:00,50.3,34.3,30.34,ENE,67,0.0,4.0,54,0.00,,,0.00,WUHU216DAVISVP2,2013-05-26 00:34:00,
2013-05-25 20:39:00,49.9,34.9,30.34,ENE,67,0.0,4.0,56,0.00,,,0.00,WUHU216DAVISVP2,2013-05-26 00:39:00,
2013-05-25 20:44:00,49.5,34.0,30.34,ENE,67,0.0,2.0,55,0.00,,,0.00,WUHU216DAVISVP2,2013-05-26 00:44:00,
2013-05-25 20:49:00,49.2,34.2,30.34,ENE,68,0.0,2.0,56,0.00,,,0.00,WUHU216DAVISVP2,2013-05-26 00:49:00,
2013-05-25 20:54:00,48.9,35.3,30.34,ENE,68,0.0,2.0,59,0.00,,,0.00,WUHU216DAVISVP2,2013-05-26 00:54:00,
2013-05-25 20:59:00,48.5,35.3,30.34,ENE,68,0.0,0.0,60,0.00,,,0.00,WUHU216DAVISVP2,2013-05-26 00:59:00,
2013-05-25 21:04:00,47.9,35.2,30.34,ENE,68,0.0,0.0,61,0.00,,,0.00,WUHU216DAVISVP2,2013-05-26 01:04:00,
2013-05-25 21:09:00,47.4,35.5,30.33,ENE,68,0.0,0.0,63,0.00,,,0.00,WUHU216DAVISVP2,2013-05-26 01:09:00,
2013-05-25 21:14:00,47.0,35.5,30.34,ENE,68,0.0,0.0,64,0.00,,,0.00,WUHU216DAVISVP2,2013-05-26 01:14:00,
2013-05-25 21:19:00,46.6,35.9,30.34,ENE,68,0.0,0.0,66,0.00,,,0.00,WUHU216DAVISVP2,2013-05-26 01:19:00,
2013-05-25 21:24:00,46.1,36.2,30.33,ENE,68,0.0,0.0,68,0.00,,,0.00,WUHU216DAVISVP2,2013-05-26 01:24:00,
2013-05-25 21:29:00,45.8,36.3,30.33,ENE,68,0.0,0.0,69,0.00,,,0.00,WUHU216DAVISVP2,2013-05-26 01:29:00,
2013-05-25 21:34:00,45.5,36.4,30.33,ENE,68,0.0,0.0,70,0.00,,,0.00,WUHU216DAVISVP2,2013-05-26 01:34:00,
2013-05-25 21:40:00,45.1,35.6,30.33,ENE,68,0.0,0.0,69,0.00,,,0.00,WUHU216DAVISVP2,2013-05-26 01:40:00,
2013-05-25 21:45:00,44.7,36.0,30.33,ENE,68,0.0,0.0,71,0.00,,,0.00,WUHU216DAVISVP2,2013-05-26 01:45:00,
2013-05-25 21:50:00,44.3,35.9,30.33,ENE,68,0.0,0.0,72,0.00,,,0.00,WUHU216DAVISVP2,2013-05-26 01:50:00,
2013-05-25 21:55:00,44.0,36.0,30.33,ENE,68,0.0,0.0,73,0.00,,,0.00,WUHU216DAVISVP2,2013-05-26 01:55:00,
2013-05-25 22:00:00,43.6,35.9,30.33,ENE,68,0.0,0.0,74,0.00,,,0.00,WUHU216DAVISVP2,2013-05-26 02:00:00,
2013-05-25 22:05:00,43.3,36.0,30.33,ENE,68,0.0,0.0,75,0.00,,,0.00,WUHU216DAVISVP2,2013-05-26 02:05:00,
2013-05-25 22:10:00,43.1,36.1,30.33,ENE,68,0.0,0.0,76,0.00,,,0.00,WUHU216DAVISVP2,2013-05-26 02:10:00,
2013-05-25 22:15:00,42.8,36.1,30.33,ENE,68,0.0,0.0,77,0.00,,,0.00,WUHU216DAVISVP2,2013-05-26 02:15:00,
2013-05-25 22:20:00,42.5,35.8,30.33,ENE,68,0.0,0.0,77,0.00,,,0.00,WUHU216DAVISVP2,2013-05-26 02:20:00,
2013-05-25 22:25:00,42.2,35.9,30.34,ENE,68,0.0,0.0,78,0.00,,,0.00,WUHU216DAVISVP2,2013-05-26 02:25:00,
2013-05-25 22:30:00,42.0,35.7,30.34,ENE,68,0.0,0.0,78,0.00,,,0.00,WUHU216DAVISVP2,2013-05-26 02:30:00,
2013-05-25 22:35:00,41.8,35.8,30.34,ENE,68,0.0,0.0,79,0.00,,,0.00,WUHU216DAVISVP2,2013-05-26 02:35:00,
2013-05-25 22:40:00,41.8,35.8,30.34,ENE,68,0.0,0.0,79,0.00,,,0.00,WUHU216DAVISVP2,2013-05-26 02:40:00,
2013-05-25 22:45:00,41.6,35.9,30.34,ENE,68,0.0,0.0,80,0.00,,,0.00,WUHU216DAVISVP2,2013-05-26 02:45:00,
2013-05-25 22:50:00,41.5,35.5,30.34,ENE,68,0.0,2.0,79,0.00,,,0.00,WUHU216DAVISVP2,2013-05-26 02:50:00,
2013-05-25 22:55:00,41.4,35.7,30.34,ENE,68,0.0,2.0,80,0.00,,,0.00,WUHU216DAVISVP2,2013-05-26 02:55:00,
2013-05-25 23:00:00,41.3,35.6,30.34,ENE,68,0.0,0.0,80,0.00,,,0.00,WUHU216DAVISVP2,2013-05-26 03:00:00,
2013-05-25 23:05:00,41.3,35.6,30.34,ENE,68,0.0,0.0,80,0.00,,,0.00,WUHU216DAVISVP2,2013-05-26 03:05:00,
2013-05-25 23:10:00,41.2,35.8,30.33,ENE,68,0.0,0.0,81,0.00,,,0.00,WUHU216DAVISVP2,2013-05-26 03:10:00,
2013-05-25 23:15:00,41.1,35.7,30.33,ENE,68,0.0,0.0,81,0.00,,,0.00,WUHU216DAVISVP2,2013-05-26 03:15:00,
2013-05-25 23:20:00,41.0,35.9,30.33,ENE,68,0.0,0.0,82,0.00,,,0.00,WUHU216DAVISVP2,2013-05-26 03:20:00,
2013-05-25 23:25:00,40.9,36.1,30.33,ENE,68,0.0,0.0,83,0.00,,,0.00,WUHU216DAVISVP2,2013-05-26 03:25:00,
2013-05-25 23:30:00,40.8,36.0,30.33,ENE,68,0.0,0.0,83,0.00,,,0.00,WUHU216DAVISVP2,2013-05-26 03:30:00,
2013-05-25 23:35:00,40.7,35.9,30.33,ENE,68,0.0,0.0,83,0.00,,,0.00,WUHU216DAVISVP2,2013-05-26 03:35:00,
2013-05-25 23:40:00,40.5,35.7,30.33,ENE,68,0.0,0.0,83,0.00,,,0.00,WUHU216DAVISVP2,2013-05-26 03:40:00,
2013-05-25 23:45:00,40.3,35.8,30.34,ENE,68,0.0,0.0,84,0.00,,,0.00,WUHU216DAVISVP2,2013-05-26 03:45:00,
2013-05-25 23:50:00,40.2,35.7,30.34,ENE,68,0.0,0.0,84,0.00,,,0.00,WUHU216DAVISVP2,2013-05-26 03:50:00,
2013-05-25 23:55:00,39.9,35.4,30.33,ENE,68,0.0,0.0,84,0.00,,,0.00,WUHU216DAVISVP2,2013-05-26 03:55:00,